Volver al catálogo

KUIPER-00260

ActivoComunicacionesLEO
NORAD 67787·PAYLOAD·🇺🇸 United States

Lanzado Feb 12, 2026 desde Guiana Space Centre

Loading…

Próximos Pases (próximas 24 horas)

TLE

ActualizadoSource: CelesTrak SupGP

Época: Sep 14, 2026, 13:22 UTC

1 67787C 26030Z   26257.55738426 -.00001361  00000+0 -17823-3 0  2571
2 67787  51.8995  80.5423 0000871 114.5312 275.9037 14.79922603    16

Sigue KUIPER-00260 en tiempo real con AllMySat

Download on the App Store